Tracking 25686 objects as of 25-May-2022
HD Live streaming from Space Station
objects crossing your sky now

SL-12 R/B(2)

Track SL-12 R/B(2) now!


NORAD ID: 25660
Int'l Code: 1999-013D
Perigee: 9,185.8 km
Apogee: 36,264.8 km
Inclination: 12.4 °
Period: 823.2 minutes
Semi major axis: 29096 km
RCS: 28.3579 m2 (large)
Launch date: March 21, 1999
Source: Commonwealth of Independent States (former USSR) (CIS)
Launch site: TYURATAM MISSILE AND SPACE COMPLEX (TTMTR)

Note: This is a ROCKET BODY
aabbcc
Your satellite tracking list
Your tracking list is empty




NASA's NSSDC Master Catalog

Two Line Element Set (TLE):
1 25660U 99013D   22144.83509288 -.00000114  00000-0  00000-0 0  9994
2 25660  12.4298 233.0738 4653329 209.8431  97.2890  1.74922491148122
Source of the keplerian elements: AFSPC